Regional Weather Roundup
Issued by NWS San Angelo, TX

Home | Current Version | Previous Version | Text Only | Print | Product List | Glossary On
Versions: 1 2 3 4 5 6 7 8 9 10 11 12 13 14 15 16 17 18 19 20 21 22 23 24 25 26 27 28 29 30 31 32 33 34 35 36 37 38 39 40 41 42 43 44 45 46 47 48 49 50
000
ASUS44 KSJT 181910
RWRSJT
WEST CENTRAL TEXAS REGIONAL WEATHER ROUNDUP
NATIONAL WEATHER SERVICE SAN ANGELO TX
100 PM CST WED JAN 18 2017

NOTE: "FAIR" INDICATES FEW OR NO CLOUDS BELOW 12,000 FEET WITH NO
SIGNIFICANT WEATHER AND/OR OBSTRUCTIONS TO VISIBILITY.

TXZ049-054-064>066-071>073-076>078-098-099-113-114-127-128-139-140-
154-155-168>170-182000
...LOCATIONS ACROSS WEST CENTRAL TEXAS...

CITY           SKY/WX    TMP DP  RH WIND       PRES   REMARKS
SAN ANGELO     CLOUDY    50  46  86 W3        30.11F
ABILENE        CLOUDY    48  46  93 CALM      30.11F
DYESS AFB      CLOUDY    49  39  69 CALM      30.09F
JUNCTION       CLOUDY    50  47  89 NW7       30.09F
SWEETWATER     CLOUDY    52  48  86 SW10      30.11F
BROWNWOOD      CLOUDY    50  48  93 NW9       30.10F
COLEMAN        CLOUDY    50  46  87 NW3       30.10F
SONORA         CLOUDY    48  45  87 NW7       30.16F
OZONA          CLOUDY    46  43  87 MISG      30.15F
BRADY          NOT AVBL
$$

TEXAS PANHANDLE/OKLAHOMA PANHANDLE

CITY           SKY/WX    TMP DP  RH WIND       PRES   REMARKS
AMARILLO       SUNNY     55  42  61 S18G24    29.99F
BORGER         SUNNY     55  42  61 S14G23    29.96F
CANADIAN       SUNNY     56  44  63 S14G22    29.99F
DALHART        SUNNY     51  38  60 S17G25    29.93F
DUMAS          CLEAR     51  38  61 S15G24    29.94F
GUYMON         NOT AVBL
HEREFORD       CLEAR     52  44  72 SW18      30.00F
PAMPA          CLEAR     57  43  59 SW18G24   29.99F
PERRYTON       NOT AVBL
$$

SOUTHERN PANHANDLE/SOUTH PLAINS/ROLLING PLAINS

CITY           SKY/WX    TMP DP  RH WIND       PRES   REMARKS
LUBBOCK        PTSUNNY   54  42  64 W15       30.04F
SNYDER         PTSUNNY   52  46  79 SW6       30.09F
CHILDRESS      CLOUDY    48  47  96 SE8       30.06F FOG
SEMINOLE       PTCLDY    54  41  62 SW6       30.08F
$$

PERMIAN BASIN

CITY           SKY/WX    TMP DP  RH WIND       PRES   REMARKS
MIDLAND        MOSUNNY   53  41  63 SW6       30.09F
ODESSA         SUNNY     53  41  63 SW8       30.09F
WINK           SUNNY     55  42  61 S8        30.08F
$$

FAR WEST/SOUTHWEST MOUNTAINS/TRANS PECOS

CITY           SKY/WX    TMP DP  RH WIND       PRES   REMARKS
ALPINE         CLEAR     58  34  40 SW13      30.16F
DRYDEN           N/A     54  42  64 NW7       30.10F
EL PASO        MOSUNNY   52  38  58 SW13      30.13F
FORT STOCKTON  SUNNY     50  42  74 W5        30.11F
GUADALUPE PASS NOT AVBL
MARFA          SUNNY     54  34  46 W17       30.14F
PECOS          CLEAR     56  42  59 S3        30.09F
$$

DALLAS/FORT WORTH METROPLEX

CITY           SKY/WX    TMP DP  RH WIND       PRES   REMARKS
DFW AIRPORT    CLOUDY    50  48  93 NW9       30.06F
FTW MEACHAM    CLOUDY    50  47  89 NW10      30.08F
DAL-EXECUTIVE  LGT RAIN  49  48  97 NW10      30.05F FOG
GRAND PRAIRIE  CLOUDY    48  48 100 NW6       30.09F
ADDISON        CLOUDY   N/A N/A N/A NW9       30.09F
MESQUITE       CLOUDY    48  48 100 W9        30.08F
LANCASTER      RAIN      49  48  93 NW8       30.06F
$$

NORTH CENTRAL TEXAS

CITY           SKY/WX    TMP DP  RH WIND       PRES   REMARKS
SHRMAN/DENISON CLOUDY    50  50 100 N6        30.07F
GAINESVILLE    CLOUDY    50  45  84 NW6       30.10F
BRIDGEPORT     CLOUDY    50  48  93 W5        30.11F
DENTON         CLOUDY    50  48  93 N8        30.08F
WAXAHACHIE     CLOUDY    48  48 100 NW6       30.08F FOG
GRANBURY       CLOUDY    50  47  91 NW9       30.11F
$$

WESTERN NORTH TEXAS

CITY           SKY/WX    TMP DP  RH WIND       PRES   REMARKS
WICHITA FALLS  CLOUDY    47  45  93 CALM      30.10F FOG
VERNON         CLOUDY    48  44  84 S5        30.10F
BRECKENRIDGE   CLOUDY    49  47  94 CALM      30.10F
COMANCHE       CLOUDY    49  49 100 N10       30.10F
$$

CENTRAL AND SOUTH CENTRAL TEXAS

CITY           SKY/WX    TMP DP  RH WIND       PRES   REMARKS
AUSTIN/BERGSTM CLOUDY    55  50  83 NW9       30.05F
WACO           CLOUDY    50  49  96 N12       30.07F
HILLSBORO      CLOUDY    50  48  95 NW12      30.08S
TEMPLE         CLOUDY    50  49  96 NW10      30.06F
KILLEEN-GRAY   CLOUDY    50  49  95 N12       30.06F
FORT HOOD      CLOUDY    50  48  93 NW8       30.08F
GEORGETOWN     CLOUDY    52  46  82 NW13      30.06F
LAGO VISTA     CLOUDY    53  51  94 N6        30.06F
SAN MARCOS     CLOUDY    54  52  94 NW10      30.05F
NEW BRAUNFELS  CLOUDY    58  52  80 N9        30.04F
RANDOLPH AFB   CLOUDY    58  55  92 NW8       30.05F
SAN ANTONIO    CLOUDY    59  51  75 NW9       30.06F
STINSON        CLOUDY    60  50  69 N7        30.05F
PLEASANTON     NOT AVBL
LA GRANGE      CLOUDY    54  53  96 NW8       30.01F
GIDDINGS       CLOUDY    51  50  97 NW8       30.05F
$$

EAST TEXAS

CITY           SKY/WX    TMP DP  RH WIND       PRES   REMARKS
PARIS          CLOUDY    50  46  87 E12       30.03F
CLARKSVILLE    NOT AVBL
TYLER          LGT RAIN  54  53  97 E5        30.00F FOG
LONGVIEW       HVY RAIN  55  55 100 E9        30.01F FOG
PALESTINE      CLOUDY    54  54 100 CALM      30.02F
NACOGDOCHES    CLOUDY    55  52  88 N6        30.02F
$$

TEXAS HILL COUNTRY AND EDWARDS PLATEAU

CITY           SKY/WX    TMP DP  RH WIND       PRES   REMARKS
LLANO          CLOUDY    54  48  82 NW7       30.12F
HORSESHOE BAY  CLOUDY    54  49  86 NW5       30.07F
KERRVILLE      CLOUDY    54  49  86 NW9       30.08F
FREDERICKSBRG  CLOUDY    51  47  87 NW8       30.08F
ROCKSPRINGS    CLOUDY    48  46  93 N9        30.11F
HONDO          MOSUNNY   64  51  62 NE7       30.06F
UVALDE         CLEAR     62  49  63 CALM      30.08F
DEL RIO        CLOUDY    53  45  74 NW12G18   30.12F
$$

SOUTHEAST TEXAS

CITY           SKY/WX    TMP DP  RH WIND       PRES   REMARKS
COLLEGE STN    RAIN      54  53  97 W5        30.03S FOG
CALDWELL       NOT AVBL
CROCKETT       LGT RAIN  55  54  94 NE5       30.02F
BRENHAM        RAIN      54  54  98 CALM      30.03F
HUNTSVILLE     LGT RAIN  53  52  96 VRB3      30.01F FOG
CONROE         LGT RAIN  60  59  96 NW6       30.00F
HOUSTON BUSH   CLOUDY    73  69  87 W12       29.97F
HOUSTON HOBBY  LGT RAIN  75  71  87 S10G20    29.96F
PERLAND        LGT RAIN  77  70  79 S12       29.98F
WHARTON        CLOUDY    57  56  97 NW13      30.02F FOG
$$

THE UPPER TEXAS COAST

CITY           SKY/WX    TMP DP  RH WIND       PRES   REMARKS
ORANGE         CLOUDY    75  75 100 S16       30.03F
PORT ARTHUR    CLOUDY    76  68  76 S20G29    30.00F
GALVESTON      MOSUNNY   74  70  87 S16       30.01F
ANGLETON       CLOUDY    77  70  79 S21G29    29.98F
BAY CITY       LGT RAIN  67  63  88 W10       30.00F
$$

TEXAS COASTAL BEND, RIO GRANDE PLAINS DEEP SOUTH TEXAS

CITY           SKY/WX    TMP DP  RH WIND       PRES   REMARKS
VICTORIA       CLOUDY    55  53  93 NW9       30.03F
BEEVILLE       CLOUDY    48  48 100 N10       30.04F
ROCKPORT       CLOUDY    60  54  80 NW9       30.03F
PORT ARANSAS   CLOUDY    58  55  90 NW13      30.03F
PORT LAVACA    CLOUDY    56  56  99 NW8       30.03F
CORPUS CHRISTI CLOUDY    59  55  87 NW13      30.03F
KINGSVILLE NAS CLOUDY    59  56  89 NW9       30.05F
COTULLA        CLOUDY    61  51  70 CALM      30.07F
LAREDO         CLOUDY    61  48  62 NW10      30.09F
BROWNSVILLE    CLOUDY    72  60  66 NW12      30.02F
PORT ISABEL    CLOUDY    69  60  73 NW12      30.01F
HEBBRONVILLE   CLOUDY    55  52  89 NW12      30.07F
MCALLEN        CLOUDY    64  55  72 NW13      30.06F
WESLACO        CLOUDY    62  56  82 N13       30.04F
FALFURRIAS     CLOUDY    61  54  78 NW10      30.06F
EDINBURG       CLOUDY    64  55  72 N10       30.06F
$$



USA.gov is the U.S. government's official web portal to all federal, state and local government web resources and services.